STARLINK-32256, 60362

Orbit data source: Space-Track

STARLINK-32256, 60362 is a payload satellite owned by SpaceX/Seattle (US) in LEO that was launched on Sun, 04 Aug 2024 UTC via an FALCON 9 launch vehicle from the Air Force Western Test Range (AFWTR). Payload-class satellites include a variety of spacecraft equipped with specific instruments for various scientific and technological missions. These include communications satellites like Starlink; space stations such as the ISS; scientific satellites like the Hubble; Earth observation satellites from companies like Planet Labs, Umbra, and HawkEye 360; GPS; miniature CubeSats for education and research; and military/defense satellites.

Loading next visibility...
Identifier
60362, 2024-138H
Orbit
LEO
Country
Flag of USUS
Related business
Manufacturer
SpaceX/Seattle
Mission
Operational Commercial Communications
Bus & Motor
STARLINK V2M, Unknown motor
Mass
730 kg wet, ~700 kg dry
Launch date (UTC)
2024-08-04 (1 year ago)
Launch vehicle
FALCON 9
Launch site
Air Force Western Test Range (AFWTR)
Object type
Payload
Rocket body
Debris
Shape & HBR
Box + 2 Pan, 14.5 m
Radar Cross Section
33.884 m², Large (>1 m²)

Expand to show TLE details & history
Last TLE update: 16 hours ago

TLE from 16 hours ago
0 STARLINK-32256
1 60362U 24138H   25258.12697047 -.00000195  00000-0  55124-5 0  9991
2 60362  53.1617  45.3868 0000582  80.2255 279.8811 15.30194672 63736
Epoch: 2025-09-15T03:02Z
TLE epoch observation values (Epoch: 2025-09-15T03:02:50.248Z)
Latitude
-0.00007°
Longitude
5.34129°
Altitude
476.062 km
Speed
7.629 km/s
True Right ascension
03h 01m 32s
True Declination
0° 00' 00"
Sunlit
Object was in full shadow at epoch
Visualization orbit readout
Latitude
Unknown
Longitude
Unknown
Altitude
Unknown
Speed
Unknown
Apparent Right ascension
Unknown
Apparent Declination
Unknown
Sunlit
N/A
Visualization observer readout
Local Sidereal Time
11:51:41
Azimuth
Unknown
Elevation
Unknown
Doppler factor
Unknown
Orbital elements
Apogee altitude
475.886 km
Perigee altitude
475.088 km
Semi-major axis
6,853.624 km
Eccentricity
0.00006
Inclination
53.1617°
RAAN
45.3868°
Arg. of periapsis
80.2255°
True anomaly
279.87453°
Mean anomaly
279.8811°
Eccentric anomaly
279.87781°
Mean motion
3.82528 °/min
Orbital period
94.11 mins
BSTAR
0.0000055124
Loading maneuver chart data...
Computing Atmospheric mass density...
Loading historical data...
Loading historical data...
Loading historical data...
Loading historical data...
Loading historical data...
Loading historical data...
Loading historical data...

Documentation

Showing up to 5 results
|